| time (UTC) | temp F | wind direction | speed MPH | gust MPH | rain 1hr in | rain 24hr in | rain mn in | humidity % | barometer mb |
| 20260506164507 | 52 | 210 | 4.0 | 8.0 | 0.00 | 0.00 | 0.00 | 51 | 1011.7 |
| 20260506163006 | 52 | 210 | 6.0 | 10.0 | 0.00 | 0.00 | 0.00 | 48 | 1011.7 |
| 20260506161504 | 52 | 214 | 5.0 | 9.0 | 0.00 | 0.00 | 0.00 | 50 | 1011.6 |
| 20260506160007 | 51 | 185 | 4.0 | 9.0 | 0.00 | 0.00 | 0.00 | 47 | 1011.5 |
| 20260506154502 | 52 | 200 | 6.0 | 11.0 | 0.00 | 0.00 | 0.00 | 43 | 1011.6 |
| 20260506153001 | 54 | 226 | 6.0 | 10.0 | 0.00 | 0.00 | 0.00 | 39 | 1011.6 |
| 20260506151602 | 55 | 210 | 5.0 | 9.0 | 0.00 | 0.00 | 0.00 | 42 | 1011.6 |
| 20260506144601 | 55 | 205 | 6.0 | 11.0 | 0.00 | 0.00 | 0.00 | 38 | 1011.8 |
| 20260506143057 | 55 | 185 | 5.0 | 11.0 | 0.00 | 0.00 | 0.00 | 41 | 1011.8 |
| 20260506141558 | 56 | 200 | 5.0 | 10.0 | 0.00 | 0.00 | 0.00 | 42 | 1011.8 |
| 20260506134555 | 56 | 191 | 3.0 | 9.0 | 0.00 | 0.00 | 0.00 | 41 | 1011.9 |
| 20260506133100 | 56 | 196 | 4.0 | 10.0 | 0.00 | 0.00 | 0.00 | 46 | 1011.9 |
| 20260506131556 | 55 | 210 | 5.0 | 10.0 | 0.00 | 0.00 | 0.00 | 45 | 1012.1 |
| 20260506130055 | 55 | 239 | 4.0 | 10.0 | 0.00 | 0.00 | 0.00 | 46 | 1012.1 |
| 20260506124554 | 55 | 205 | 5.0 | 11.0 | 0.00 | 0.00 | 0.00 | 47 | 1012.2 |
| 20260506123052 | 55 | 200 | 6.0 | 10.0 | 0.00 | 0.00 | 0.00 | 45 | 1012.3 |
| 20260506121551 | 55 | 231 | 4.0 | 10.0 | 0.00 | 0.00 | 0.00 | 47 | 1012.4 |
| 20260506120107 | 55 | 210 | 4.0 | 10.0 | 0.00 | 0.00 | 0.00 | 50 | 1012.5 |
| 20260506114603 | 54 | 99 | 2.0 | 7.0 | 0.00 | 0.00 | 0.00 | 41 | 1012.5 |
| 20260506113051 | 55 | 205 | 2.0 | 8.0 | 0.00 | 0.00 | 0.00 | 48 | 1012.5 |
| 20260506111553 | 56 | 210 | 2.0 | 9.0 | 0.00 | 0.00 | 0.00 | 47 | 1012.6 |
| 20260506110046 | 55 | 170 | 2.0 | 8.0 | 0.00 | 0.00 | 0.00 | 50 | 1012.6 |
| 20260506104545 | 54 | 233 | 1.0 | 9.0 | 0.00 | 0.00 | 0.00 | 48 | 1012.6 |
| 20260506103041 | 52 | 143 | 1.0 | 10.0 | 0.00 | 0.00 | 0.00 | 50 | 1012.6 |
| 20260506101540 | 52 | 157 | 0.0 | 7.0 | 0.00 | 0.00 | 0.00 | 52 | 1012.6 |
| 20260506100041 | 53 | 106 | 3.0 | 9.0 | 0.00 | 0.00 | 0.00 | 46 | 1012.8 |
| 20260506094544 | 54 | 166 | 3.0 | 8.0 | 0.00 | 0.00 | 0.00 | 48 | 1012.8 |
| 20260506093055 | 52 | 49 | 0.0 | 4.0 | 0.00 | 0.00 | 0.00 | 36 | 1012.7 |
| 20260506091534 | 51 | 58 | 2.0 | 5.0 | 0.00 | 0.00 | 0.00 | 36 | 1012.8 |
| 20260506090038 | 52 | 310 | 2.0 | 7.0 | 0.00 | 0.00 | 0.00 | 39 | 1012.7 |
| 20260506084530 | 51 | 95 | 0.0 | 3.0 | 0.00 | 0.00 | 0.00 | 42 | 1012.8 |
| 20260506083029 | 51 | 4 | 0.0 | 7.0 | 0.00 | 0.00 | 0.00 | 42 | 1012.9 |
| 20260506081526 | 50 | 338 | 1.0 | 6.0 | 0.00 | 0.00 | 0.00 | 45 | 1013.1 |
| 20260506073019 | 48 | 52 | 3.0 | 7.0 | 0.00 | 0.00 | 0.00 | 46 | 1013.0 |
| 20260506071518 | 48 | 45 | 2.0 | 6.0 | 0.00 | 0.00 | 0.00 | 46 | 1013.0 |
| 20260506061511 | 45 | 47 | 3.0 | 6.0 | 0.00 | 0.00 | 0.00 | 51 | 1013.1 |
| 20260506050103 | 39 | 335 | 0.0 | 3.0 | 0.00 | 0.00 | 0.00 | 65 | 1012.9 |
| 20260506044605 | 39 | 300 | 0.0 | 0.0 | 0.00 | 0.00 | 0.00 | 67 | 1012.9 |
| 20260506043054 | 37 | 298 | 0.0 | 0.0 | 0.00 | 0.00 | 0.00 | 68 | 1012.9 |
| 20260506041605 | 35 | 296 | 0.0 | 0.0 | 0.00 | 0.00 | 0.00 | 71 | 1012.8 |
| 20260506040055 | 33 | 289 | 0.0 | 0.0 | 0.00 | 0.00 | 0.00 | 73 | 1012.7 |
| 20260506034551 | 33 | 289 | 0.0 | 0.0 | 0.00 | 0.00 | 0.00 | 73 | 1012.7 |
| 20260506033052 | 32 | 285 | 0.0 | 0.0 | 0.00 | 0.00 | 0.00 | 73 | 1012.6 |
| 20260506031549 | 32 | 286 | 0.0 | 0.0 | 0.00 | 0.00 | 0.00 | 73 | 1012.5 |
| 20260506030048 | 32 | 285 | 0.0 | 3.0 | 0.00 | 0.00 | 0.00 | 73 | 1012.5 |
| 20260506024547 | 32 | 280 | 0.0 | 0.0 | 0.00 | 0.00 | 0.00 | 73 | 1012.6 |
| 20260506023052 | 33 | 283 | 1.0 | 3.0 | 0.00 | 0.00 | 0.00 | 73 | 1012.6 |
| 20260506021542 | 33 | 287 | 1.0 | 3.0 | 0.00 | 0.00 | 0.00 | 72 | 1012.4 |
| 20260506020109 | 32 | 322 | 0.0 | 0.0 | 0.00 | 0.00 | 0.00 | 74 | 1012.5 |
| 20260506014539 | 32 | 324 | 0.0 | 0.0 | 0.00 | 0.00 | 0.00 | 74 | 1012.4 |
| 20260506013035 | 33 | 324 | 0.0 | 0.0 | 0.00 | 0.00 | 0.00 | 73 | 1012.3 |
| 20260506011536 | 33 | 324 | 0.0 | 0.0 | 0.00 | 0.00 | 0.00 | 73 | 1012.2 |
| 20260506010033 | 33 | 324 | 0.0 | 0.0 | 0.00 | 0.00 | 0.00 | 74 | 1012.1 |
| 20260506004539 | 34 | 324 | 0.0 | 0.0 | 0.00 | 0.00 | 0.00 | 72 | 1012.0 |
| 20260506003028 | 34 | 325 | 0.0 | 0.0 | 0.00 | 0.00 | 0.00 | 72 | 1012.1 |
| 20260506001526 | 35 | 325 | 0.0 | 0.0 | 0.00 | 0.00 | 0.00 | 70 | 1012.1 |
| 20260506000041 | 36 | 325 | 0.0 | 0.0 | 0.00 | 0.00 | 0.00 | 70 | 1012.2 |
| 20260505234523 | 36 | 325 | 0.0 | 0.0 | 0.00 | 0.00 | 0.00 | 70 | 1012.0 |
| 20260505233021 | 37 | 325 | 0.0 | 0.0 | 0.00 | 0.00 | 0.00 | 69 | 1012.0 |
| 20260505231519 | 38 | 325 | 0.0 | 0.0 | 0.00 | 0.00 | 0.00 | 67 | 1011.9 |
| 20260505230029 | 38 | 325 | 0.0 | 0.0 | 0.00 | 0.00 | 0.00 | 68 | 1011.9 |
| 20260505224614 | 39 | 325 | 0.0 | 0.0 | 0.00 | 0.00 | 0.00 | 66 | 1011.8 |
| 20260505223012 | 39 | 326 | 0.0 | 4.0 | 0.00 | 0.00 | 0.00 | 67 | 1011.8 |
| 20260505221509 | 39 | 317 | 0.0 | 2.0 | 0.00 | 0.00 | 0.00 | 71 | 1011.7 |
| 20260505220006 | 40 | 324 | 0.0 | 0.0 | 0.00 | 0.00 | 0.00 | 72 | 1011.8 |
| 20260505214505 | 41 | 325 | 0.0 | 3.0 | 0.00 | 0.00 | 0.00 | 71 | 1011.7 |
| 20260505213007 | 41 | 326 | 0.0 | 0.0 | 0.00 | 0.00 | 0.00 | 70 | 1011.5 |
| 20260505211503 | 42 | 322 | 0.0 | 3.0 | 0.00 | 0.00 | 0.00 | 71 | 1011.4 |
| 20260505210002 | 42 | 295 | 0.0 | 0.0 | 0.00 | 0.00 | 0.00 | 73 | 1011.3 |
| 20260505204613 | 43 | 295 | 0.0 | 0.0 | 0.00 | 0.00 | 0.00 | 76 | 1011.1 |
| 20260505203059 | 43 | 266 | 1.0 | 2.0 | 0.00 | 0.00 | 0.00 | 81 | 1011.0 |
| 20260505201557 | 44 | 226 | 0.0 | 2.0 | 0.00 | 0.00 | 0.00 | 81 | 1010.9 |
| 20260505200056 | 45 | 219 | 0.0 | 2.0 | 0.00 | 0.00 | 0.00 | 79 | 1010.9 |
| 20260505194556 | 46 | 216 | 0.0 | 4.0 | 0.00 | 0.00 | 0.00 | 78 | 1010.9 |
| 20260505193053 | 46 | 210 | 2.0 | 6.0 | 0.00 | 0.00 | 0.00 | 77 | 1010.8 |
| 20260505191557 | 47 | 214 | 2.0 | 4.0 | 0.00 | 0.00 | 0.00 | 75 | 1010.7 |
| 20260505190052 | 47 | 235 | 1.0 | 8.0 | 0.00 | 0.00 | 0.00 | 74 | 1010.6 |
| 20260505184550 | 47 | 224 | 3.0 | 8.0 | 0.00 | 0.00 | 0.00 | 74 | 1010.6 |
| 20260505183047 | 47 | 225 | 3.0 | 7.0 | 0.00 | 0.00 | 0.00 | 72 | 1010.5 |
| 20260505181611 | 47 | 224 | 4.0 | 10.0 | 0.00 | 0.00 | 0.00 | 72 | 1010.5 |
| 20260505180101 | 48 | 210 | 5.0 | 10.0 | 0.00 | 0.00 | 0.00 | 71 | 1010.4 |
| 20260505174546 | 48 | 210 | 3.0 | 10.0 | 0.00 | 0.00 | 0.00 | 70 | 1010.4 |
| 20260505173044 | 48 | 221 | 5.0 | 11.0 | 0.00 | 0.00 | 0.00 | 67 | 1010.4 |
| 20260505171544 | 48 | 225 | 2.0 | 9.0 | 0.00 | 0.00 | 0.00 | 66 | 1010.4 |
| 20260505170042 | 48 | 222 | 5.0 | 11.0 | 0.00 | 0.00 | 0.00 | 64 | 1010.4 |